Lid_Strength_Index
8 10 11 10 8 7 7 8 8 7 6 7 7 7 6 4 4 4 5 5 5 4 2 1 1 1 1 0 0 0 0 0 0 1 1 1 2 1 -1 -1 -1 -1 -1 -1
9 11 8 7 7 7 7 8 8 7 6 6 7 7 6 5 5 4 4 4 4 4 2 2 2 1 1 1 0 0 1 1 0 0 0 0 1 0 0 -1 -1 -1 -1 -1
10 9 8 7 7 8 8 8 8 8 7 6 7 8 7 5 4 4 4 3 3 3 3 2 2 2 1 1 1 1 -0 0 0 -0 -0 0 -0 0 0 0 0 -0 -1 -1
9 7 8 7 8 7 9 6 7 8 8 11 7 12 8 6 6 5 4 4 3 3 2 2 2 2 1 1 1 -0 0 0 0 -0 0 1 1 2 1 0 -0 -1 -1 -1
9 8 8 8 7 6 8 6 7 7 9 9 9 10 8 6 7 6 5 4 3 3 2 2 2 2 1 1 1 1 1 1 0 0 0 1 0 1 0 -0 -1 -1 -1 -1
7 5 6 6 6 6 6 7 7 7 9 12 9 10 10 8 7 6 5 4 3 3 2 2 2 1 1 1 1 1 1 1 0 0 -0 0 1 0 1 1 0 0 -0 0
8 7 6 5 7 6 6 8 12 13 13 13 9 10 9 7 6 5 5 4 3 3 3 3 3 2 2 2 2 1 1 1 1 0 0 0 0 0 0 1 0 0 0 -0
11 11 7 6 7 8 8 8 12 15 14 13 9 12 9 6 5 4 4 4 3 3 3 3 3 2 2 2 1 1 1 1 0 0 0 -0 -0 -0 -0 -1 0 0 0 -0
11 11 6 6 6 6 8 10 7 10 10 13 12 9 7 6 5 5 5 4 4 4 3 3 3 2 2 2 1 1 1 1 1 0 -0 -0 -1 -0 -0 -1 -1 0 -1 0
8 11 7 6 5 6 7 6 11 10 15 17 14 13 12 8 7 5 5 5 4 4 3 3 3 2 2 1 1 1 0 1 0 0 -0 -0 -0 -0 -0 -0 -0 -0 -0 -0
7 9 9 7 8 8 8 9 9 9 10 15 16 13 7 8 6 6 5 5 4 4 4 3 3 2 2 1 1 1 1 1 0 0 0 0 0 0 0 1 0 -0 -0 -0
7 9 14 9 6 6 7 8 8 12 14 12 12 14 6 6 6 5 5 4 4 3 3 3 2 2 2 1 1 1 1 1 1 1 2 1 1 1 0 0 0 0 1 0
7 10 15 15 10 7 8 8 7 8 10 13 17 14 6 6 5 5 5 4 4 3 3 3 2 2 2 2 2 2 2 2 2 2 2 2 1 1 1 1 0 0 1 1
6 8 11 15 13 9 10 9 9 11 16 14 13 11 9 8 7 6 5 4 4 4 3 3 3 2 2 3 2 3 3 2 3 3 3 2 2 1 1 1 1 1 1 2
7 11 10 11 9 10 10 9 9 10 9 12 10 11 11 8 6 5 4 4 4 4 4 3 3 3 4 3 3 3 3 3 3 3 3 3 2 2 2 2 2 1 2 2
7 12 11 14 10 10 11 10 9 9 9 9 9 10 7 5 5 5 5 5 5 4 4 3 4 4 4 4 4 3 3 3 3 3 3 3 2 2 1 1 2 2 2 2
10 12 13 14 10 11 14 10 10 9 8 8 10 7 5 6 6 5 5 5 5 4 4 4 4 4 3 3 3 3 3 3 3 3 3 2 2 2 2 2 3 3 3 3
10 11 10 14 12 18 10 6 7 8 7 6 6 6 5 5 5 4 4 4 5 4 4 3 3 3 3 3 3 3 3 3 3 3 3 3 4 4 4 4 4 4 3 4
8 11 14 15 13 10 9 8 8 8 8 6 6 6 5 5 5 5 4 3 3 3 3 3 3 3 3 3 3 3 3 3 3 4 4 5 5 6 6 6 6 5 5 6
8 9 10 11 14 15 9 7 6 6 12 6 6 6 6 6 9 7 4 3 3 3 3 3 3 3 3 3 3 4 4 5 5 5 6 6 6 7 7 8 8 7 7 6
11 10 12 12 13 10 7 6 5 12 12 6 6 6 7 8 7 4 3 4 3 4 4 3 3 4 4 5 6 6 7 7 7 7 7 7 8 9 10 10 9 7 7 7
11 12 12 11 13 17 6 6 10 8 6 6 5 5 5 5 4 4 4 4 4 5 5 4 5 5 6 6 7 8 8 8 9 9 9 9 10 10 11 9 8 7 7 6
12 9 11 10 11 7 5 6 5 5 6 5 5 4 4 4 4 4 5 5 5 5 5 4 5 5 6 7 8 9 9 9 10 10 10 11 11 11 10 9 9 8 7 7
8 6 10 9 8 7 6 5 4 4 5 4 4 4 3 4 5 5 6 6 6 6 6 5 5 6 7 9 10 11 10 10 11 12 12 12 12 12 11 9 8 9 9 8
8 7 8 9 7 6 6 5 5 4 4 3 3 3 4 5 6 6 7 7 6 6 6 6 6 6 7 9 9 10 11 12 13 13 13 13 12 12 11 10 10 10 9 8
6 8 10 10 6 7 7 5 4 4 4 3 4 5 5 6 6 6 7 7 7 7 7 7 7 7 6 7 9 12 12 13 13 14 13 13 12 12 12 11 10 10 10 10